Regional Weather Roundup
Issued by NWS

Home | Current Version | Previous Version | Graphics & Text | Print | Product List | Glossary On
Versions: 1 2 3 4 5 6 7 8 9 10 11 12 13 14 15 16 17 18 19 20 21 22 23 24 25 26 27 28 29 30 31 32 33 34 35 36 37 38 39 40 41 42 43 44 45 46 47 48 49 50
000
ASUS43 KLSX 270757
RWRMO

WEATHER SUMMARY FOR MISSOURI
NATIONAL WEATHER SERVICE SPRINGFIELD MO
300 AM CDT FRI MAY 27 2016

NOTE: "FAIR" INDICATES FEW OR NO CLOUDS BELOW 12,000 FEET WITH NO
       SIGNIFICANT WEATHER AND/OR OBSTRUCTIONS TO VISIBILITY.
       CURRENT SKY AND/OR WEATHER CONDITIONS ARE NOT AVAILABLE FOR
       CHILLICOTHE AND FARMINGTON.

MOZ001>031-035>038-043-044-053-054-270900-
...NORTHERN AND WESTERN MISSOURI...

CITY           SKY/WX    TMP DP  RH WIND       PRES   REMARKS
KANSAS CTY INT CLOUDY    63  60  90 E16       29.75F
LEE`S SUMMIT   CLOUDY    63  61  93 E15       29.77F
ST JOSEPH      HVY RAIN  62  60  93 N9        29.81R FOG
CHILLICOTHE      N/A     62  62 100 CALM      29.82F

$$
MOZ066>068-077>081-088>096-101>105-270900-
...SOUTHWEST MISSOURI...

CITY           SKY/WX    TMP DP  RH WIND       PRES   REMARKS
SPRINGFIELD    MOCLDY    68  65  90 S8        29.80F
JOPLIN         MOCLDY    69  64  84 S8        29.79F

$$
MOZ032>034-039>042-045>050-055>058-069>072-270900-
...CENTRAL MISSOURI...

CITY           SKY/WX    TMP DP  RH WIND       PRES   REMARKS
COLUMBIA       CLOUDY    66  64  94 SE10      29.86F
JEFFERSON CITY LGT RAIN  66  64  93 SE8       29.86F
SEDALIA        CLOUDY    66  64  93 MISG      29.80F
WARRENSBURG    CLOUDY    61  61 100 E7        29.79F

$$
MOZ051-052-059>065-270900-
...EAST CENTRAL MISSOURI...

CITY           SKY/WX    TMP DP  RH WIND       PRES   REMARKS
ST LOUIS INTL  CLOUDY    69  65  86 S10       29.89F

$$
MOZ072>076-082>087-097>100-106>115-270900-
...SOUTH CENTRAL AND SOUTHEAST MISSOURI...

CITY           SKY/WX    TMP DP  RH WIND       PRES   REMARKS
CAPE GIRARDEAU CLOUDY    66  64  93 S3        29.91F
POPLAR BLUFF   HVY RAIN  67  65  93 CALM      29.91F FOG
WEST PLAINS    RAIN      67  64  90 S8        29.89F FOG

$$



USA.gov is the U.S. government's official web portal to all federal, state and local government web resources and services.